Kezdőlap
METAR-TAF:

METAR-TAF

Repülőterek :

Southwest Minnesota Regional Airport (Marshall/Ryan Field)

Marshall, Minnesota, Amerikai Egyesült Államok

földrajzi szélesség: 44-27N, földrajzi hosszúság: 095-49W, magasság: 359 m

Jelenlegi meteorológiai megfigyelések

A jelentés 59 perccel ezelõtt készült, 12:56 UTC
Északnyugati szél 7 kt
Hőmérséklet -1°C
Páratartalom 69%
Légköri nyomás 1028 hPa
Látótávolság: 16.1 km
Kevés felhő 7000 lábon
Borult 9000 lábon

METAR: KMML 041256Z AUTO 32007KT 10SM FEW070 OVC090 M01/M06 A3035 RMK AO2 SLP296 T10061056 FZRANO

Idő: 07:55 (13:55 UTC)


TAF: hiányzik

Meteorológiai megfigyelések és előrejelzések több, mint 4000 repülőtéren (METAR és TAF jelentéseket).

A térképen piros és sárga pontok jelzik az elérhető meteorológiai állomásokat.

Mozgassa az egeret a pont fölött, hogy megjelenjen az állomás neve.

Azután kattintson az időjárási megfigyelések és előrejelzések megtekintéséhez.

A térkép megváltoztatása: kattintson a fekete keresztel jelölt zöld gombra ráközelítéshez, a vonallal jelölt zöld gombra távolításhoz, vagy a zöld nyilakra a szomszédos térképek eléréséhez.


METAR-TAF: